Regional Weather Roundup
Issued by NWS

Home | Current Version | Previous Version | Graphics & Text | Print | Product List | Glossary On
Versions: 1 2 3 4 5 6 7 8 9 10 11 12 13 14 15 16 17 18 19 20 21 22 23 24 25 26 27 28 29 30 31 32 33 34 35 36 37 38 39 40 41 42 43 44 45 46 47 48 49 50
269
ASUS43 KMKX 200410
RWRWI

WISCONSIN REGIONAL WEATHER ROUNDUP
NATIONAL WEATHER SERVICE MILWAUKEE/SULLIVAN WI
1000 PM CST FRI JAN 19 2018

NOTE: "FAIR" INDICATES FEW OR NO CLOUDS BELOW 12,000 FEET WITH NO
SIGNIFICANT WEATHER AND/OR OBSTRUCTIONS TO VISIBILITY.

WIZ001-002-006>008-014>016-023>028-200500-
NORTHWEST WISCONSIN

CITY           SKY/WX    TMP DP  RH WIND       PRES   REMARKS
SUPERIOR ARPT  FAIR      38  29  68 W9        29.58R WCI  32
ASHLAND        FAIR      38  27  64 SW13      29.56R WCI  30
HAYWARD        FAIR      28  23  81 S6        29.60R WCI  22
SIREN          FAIR      35  28  77 W7        29.62R WCI  29
CUMBERLAND     FAIR      32  27  80 W9        29.61R WCI  24
RICE LAKE      FAIR      25  24  93 CALM      29.63R
CHETEK         FAIR      27  25  93 CALM      29.62R
LADYSMITH      FAIR      32  27  82 SW6       29.62R WCI  26
EAU CLAIRE     FAIR      34  29  82 SW5       29.63R WCI  30
MENOMONIE      FAIR      31  28  86 CALM      29.64R
NEW RICHMOND   FAIR      31  29  90 SW5       29.64S WCI  27
OSCEOLA        FAIR      29  29 100 CALM      29.67R
$$

WIZ003>005-009-010-017-018-200500-
NORTH CENTRAL WISCONSIN

CITY           SKY/WX    TMP DP  RH WIND       PRES   REMARKS
MANITOWISH WTR FAIR      31  26  80 W9        29.53R WCI  23
ARBOR VITAE    FAIR      34  28  79 W8        29.54R WCI  27
WOODRUFF       FAIR      34  28  79 W8        29.54R WCI  27
RHINELANDER    FAIR      31  26  82 W10       29.55R WCI  22
EAGLE RIVER    FAIR      31  24  74 W10       29.52R WCI  22
LAND O LAKES   FAIR      32  26  77 W7        29.52R WCI  26
PHILLIPS       FAIR      31  26  83 W3        29.57R
TOMAHAWK       FAIR      32  26  77 W7        29.58R WCI  26
MEDFORD        FAIR      32  27  81 W8        29.60R WCI  25
MERRILL        FAIR      33  28  79 W9        29.58R WCI  26
$$

WIZ029-030-035-036-043>047-200500-
CENTRAL WISCONSIN

CITY           SKY/WX    TMP DP  RH WIND       PRES   REMARKS
WAUSAU         FAIR      35  28  75 W8        29.58R WCI  29
MOSINEE        PTCLDY    34  28  80 W10       29.60R WCI  26
MARSHFIELD     FAIR      34  27  75 W8        29.60R WCI  27
STEVENS POINT  FAIR      34  26  74 SW6       29.61R WCI  29
WAUPACA        FAIR      39  28  64 W7        29.62R WCI  34
WAUTOMA        FAIR      36  26  67 SW5       29.64R WCI  32
WISC RAPIDS    FAIR      36  26  67 W5        29.63R WCI  32
CAMP DOUGLAS   FAIR      37  29  73 W7        29.64R WCI  32
$$

WIZ011>013-019>022-031-037>040-048>050-200500-
NORTHEAST WISCONSIN

CITY           SKY/WX    TMP DP  RH WIND       PRES   REMARKS
ANTIGO         FAIR      32  26  80 W10       29.56R WCI  24
SHAWANO        FAIR      38  27  65 SW7       29.57R WCI  32
OCONTO         FAIR      37  27  67 W13       29.56R WCI  28
STURGEON BAY   FAIR      36  27  69 SW15      29.56R WCI  27
GREEN BAY      FAIR      37  26  64 SW12      29.59R WCI  29
MANITOWOC      FAIR      39  27  62 SW8G18    29.61  WCI  33
APPLETON       MOCLDY    36  25  64 SW12      29.59R WCI  27
CLINTONVILLE   FAIR      36  27  69 W7        29.59R WCI  30
OSHKOSH        FAIR      36  27  69 SW7       29.62R WCI  30
$$

WIZ032>034-041-042-053>061-200500-
SOUTHWEST WISCONSIN

CITY           SKY/WX    TMP DP  RH WIND       PRES   REMARKS
LA CROSSE      FAIR      34  28  79 S5        29.67R WCI  30
SPARTA         FAIR      38  31  76 CALM      29.66R
VIROQUA        FAIR      37  31  81 SW9       29.65R WCI  30
BOSCOBEL       FAIR      35  27  72 SW7       29.69R WCI  29
PRAIRIE DU CHI FAIR      39  27  62 SW5       29.71R
PLATTEVILLE    FAIR      36  30  78 SW10      29.71R WCI  29
$$

WIZ056-057-062-063-064-067-068-200500-
SOUTH CENTRAL WISCONSIN

CITY           SKY/WX    TMP DP  RH WIND       PRES   REMARKS
REEDSBURG      FAIR      37  28  69 SW8       29.65R WCI  31
BARABOO/DELLS  FAIR      37  27  67 SW9       29.64S WCI  30
LONE ROCK      FAIR      37  28  70 SW3       29.69R
MINERAL POINT  FAIR      37  32  81 SW12      29.68S WCI  30
MADISON        FAIR      38  27  64 SW7       29.68R WCI  33
MIDDLETON      FAIR      39  28  66 SW10G16   29.68R WCI  32
WATERTOWN      FAIR      36  29  75 SW9       29.68R WCI  29
MONROE         FAIR      37  28  70 SW21G28   29.70R WCI  27
JANESVILLE     FAIR      39  30  70 SW12      29.72R WCI  32
$$

WIZ051-052-058>065-066-070>072-200500-
SOUTHEAST WISCONSIN

CITY           SKY/WX    TMP DP  RH WIND       PRES   REMARKS
MILWAUKEE      FAIR      41  28  60 SW18G30   29.68R
WAUKESHA       FAIR      36  28  75 SW15G23   29.70R WCI  26
MILWAUKEE/TIMM FAIR      39  27  60 SW17G25   29.68R WCI  30
RACINE         FAIR      41  27  57 SW15G31   29.71R
BURLINGTON     FAIR      38  27  63 SW14G21   29.71R WCI  30
KENOSHA        FAIR      41  27  57 SW22G35   29.70R
FOND DU LAC    FAIR      35  26  69 SW10      29.63R WCI  27
SHEBOYGAN      FAIR      38  28  67 SW13      29.62R WCI  30
WEST BEND      FAIR      37  28  70 SW10G20   29.65R WCI  30
JUNEAU         FAIR      33  27  78 SW10      29.67S WCI  25
$$

LSZ147-162-200500-
LAKE SUPERIOR

STATION/POSITION TIME  TEMP    WIND        PRES    WAVE
                       AIR SEA DIR/SP/G            HT/PER
                 (UTC) (F)     (DEG/KT/KT) (MB)    (FT/S)
DEVILS ISLAND    0400   36     250/ 20/ 23 1000.2R
SAXON HARBOR     0340   41     200/ 10/ 15 1000.0R
$$

LMZ867-665-643>646-200500-
LAKE MICHIGAN

STATION/POSITION TIME  TEMP    WIND        PRES    WAVE
                       AIR SEA DIR/SP/G            HT/PER
                 (UTC) (F)     (DEG/KT/KT) (MB)    (FT/S)
NORTHPORT PIER   0340   37     230/  7/ 18  999.3R
KEWAUNEE LAKESHO 0348   38     250/ 12/ 17 1001.0R
SHEBOYGAN LAKESH 0400   40     230/ 13/ 16 1003.9R
PORT WASHINGTON  0330   42     250/ 12/ 18 1005.4R
MILWAUKEE LAKESH 0350   42     240/ 18/ 25   N/A
KENOSHA   LAKESH 0400   43     240/ 11/ 23 1006.4
$$

TC  - TEMPERATURE IN CELSIUS
VSB - VISIBILITY IN STATUTE MILES
WCI - WIND CHILL INDEX
HX  - HEAT INDEX





USA.gov is the U.S. government's official web portal to all federal, state and local government web resources and services.